CZ-6A DEB, 61150

Orbit data source: Space-Track

CZ-6A DEB, 61150 is space debris in LEO originally from a launch on Tue, 06 Aug 2024 UTC launched from the Taiyaun Space Center, China (TSC). Debris objects in space refer to the collection of defunct objects orbiting the Earth. Examples of debris include non-operational satellites, rocket bodies, and fragments generated from explosions, collisions, or faulty payload assembly.

Loading next visibility...
Identifier
61150, 2024-140QU
Orbit
LEO
Country
Flag of CNCN / PRC
Related business
Manufacturer
SAST
Mission
Spacecraft
Bus & Motor
Unknown
Mass
Unknown
Launch date (UTC)
2024-08-06 (2 years ago)
Launch vehicle
Unknown
Launch site
Taiyaun Space Center, China (TSC)
Object type
Payload
Rocket body
Debris
Shape & HBR
Unknown shape, 0.1 m
Radar Cross Section
Small (<0.1 m²)

Expand to show TLE details & history
Last TLE update: 15 hours ago

TLE from 15 hours ago
0 CZ-6A DEB
1 61150U 24140QU  26171.22241986  .00012628  00000-0  16966-2 0  9994
2 61150  88.9219 261.8274 0071512 182.0509 178.0431 14.77426858 97780
Epoch: 2026-06-20T05:20Z
TLE epoch observation values (Epoch: 2026-06-20T05:20:17.075Z)
Latitude
-0.00008°
Longitude
-86.68389°
Altitude
690.745 km
Speed
7.484 km/s
True Right ascension
17h 27m 18s
True Declination
0° 00' 00"
Sunlit
Object was in full shadow at epoch
Visualization orbit readout
Latitude
Unknown
Longitude
Unknown
Altitude
Unknown
Speed
Unknown
Apparent Right ascension
Unknown
Apparent Declination
Unknown
Sunlit
N/A
Visualization observer readout
Local Sidereal Time
07:18:27
Azimuth
Unknown
Elevation
Unknown
Doppler factor
Unknown
Orbital elements
Apogee altitude
684.475 km
Perigee altitude
584.18 km
Semi-major axis
7,012.465 km
Eccentricity
0.00715
Inclination
88.9219°
RAAN
261.8274°
Arg. of periapsis
182.0509°
True anomaly
178.07084°
Mean anomaly
178.0431°
Eccentric anomaly
178.05699°
Mean motion
3.69604 °/min
Orbital period
97.4 mins
BSTAR
0.0016966
Loading maneuver chart data...
Computing Atmospheric mass density...
Loading historical data...
Loading historical data...
Loading historical data...
Loading historical data...
Loading historical data...
Loading historical data...
Loading historical data...

Documentation

Showing up to 5 results
|